Torna al catalogo

NOAA 16 DEB

AttivoPO
NORAD 41661·DEBRIS·🇺🇸 United States

Lanciato Sep 21, 2000 da Vandenberg Space Force Base

Loading…

Prossimi Passaggi (prossime 24 ore)

TLE

AggiornatoSource: Space-Track

Epoca: Sep 14, 2026, 08:20 UTC

1 41661U 00055PA  26257.34786611  .00003223  00000-0  92674-3 0  9997
2 41661  99.0274 103.8239 0020285 341.2179  18.8260 14.45442349540601

Traccia NOAA 16 DEB in tempo reale con AllMySat

Download on the App Store